Weather in Trikala

Greece     39°33′20″N   21°46′04″E
temp.,
°C
wind,
m/s
gust,
m/s
humid.,
%
clouds,
%
prec.,
mm/h
press.,
hPa
HPBL,
m
12 april, mon
mon1200:00+8s01761 0.0 102510
03:00+7s11807 0.0 102510
06:00+6n00825 0.0 102510
09:00+9e00745 0.0 1025185
12:00+14ese116221 0.0 1024572
15:00+17ese225799 0.0 1022883
18:00+18ese225969 0.0 1020799
21:00+13se22797 0.0 102018
13 april, tue
tue1300:00+11sse1184100 0.0 102111
03:00+9s018468 0.0 102111
06:00+8ese0084100 0.0 102011
09:00+11ese1178100 0.0 102082
12:00+16e226424 0.0 1018554
15:00+20ene135085 0.0 10161106
18:00+17wsw13495 0.3 1015800
21:00+13wsw22600 0.3 101515
14 april, wed
wed1400:00+10w22630 0.0 101521
03:00+9w22640 0.0 101419
06:00+8w12700 0.0 101316
09:00+12nw226512 0.0 1014238
12:00+17n13445 0.0 10121683
15:00+19ssw133712 0.1 10112146
18:00+18wsw45425 0.0 10111097
21:00+12wsw34630 0.0 101351
15 april, thu
thu1500:00+10w22700 0.0 101527
03:00+9w22720 0.0 101619
06:00+7w11732 0.0 101713
09:00+10n11651 0.0 1018288
12:00+15e21557 0.0 1017872
15:00+17e324989 0.0 10151304
18:00+17e325294 0.0 1014880
21:00+12sse237580 0.0 101544
16 april, fri
fri1600:00+10sw117778 0.0 101713
03:00+8sw118197 0.0 101712
06:00+8w11819 0.0 101710
09:00+11ene117292 0.0 1019238
12:00+14ese226493 0.0 1018914
15:00+17ese2358100 0.1 10171309
18:00+16se2365100 0.1 1017946
21:00+12se2277100 0.1 101751